[[[{"header":{"parameterUnit":"kt","parameterCategory":2,"dx":1,"dy":1,"la1":30.253999710083008,"la2":30.299108505249023,"lo1":-89.0895004272461,"lo2":-89.04439544677734,"nx":28,"ny":28,"refTime":"2022-10-14T21:00:00:Z","depth":0,"parameterNumber":1,"parameterNumberName":"U-component_of_WINDS"},"data":[-4.8435,-4.8552,-4.8545,-4.8674,-4.869,-4.8777,-4.8805,-4.8841,-4.8868,-4.897,-4.9027,-4.9031,-4.9053,-4.9119,-4.918,-4.918,-4.9207,-4.9255,-4.9246,-4.9039,-4.901,-4.8982,-4.8954,-4.9261,-4.9261,-4.9461,-4.9463,-4.9465,-4.8288,-4.8304,-4.8371,-4.8429,-4.8486,-4.8436,-4.8478,-4.8528,-4.8607,-4.864,-4.8695,-4.8784,-4.8853,-4.8858,-4.8923,-4.8977,-4.8956,-4.8995,-4.899,-4.8995,-4.8774,-4.8744,-4.9011,-4.9011,-4.9011,-4.9011,-4.9011,-4.9011,-4.8017,-4.8088,-4.8118,-4.8189,-4.8216,-4.8255,-4.832,-4.8322,-4.8386,-4.8452,-4.8429,-4.8517,-4.8548,-4.862,-4.8641,-4.871,-4.8664,-4.8704,-4.8713,-4.8724,-4.8737,-4.8451,-4.872,-4.8719,-4.8718,-4.8718,-4.8717,0,-4.7816,-4.7805,-4.7867,-4.7927,-4.7978,-4.8024,-4.8063,-4.8103,-4.8073,-4.8127,-4.8204,-4.8246,-4.833,-4.84,-4.8458,-4.8471,-4.8422,-4.8416,-4.8443,-4.8456,-4.8461,-4.846,-4.81,-4.8408,-4.8405,-4.8403,-4.8402,-4.84,-4.7543,-4.7625,-4.7651,-4.7696,-4.7715,-4.7787,-4.7828,-4.7795,-4.784,-4.7884,-4.7946,-4.8017,-4.8071,-4.8194,-4.8193,-4.8255,-4.8231,-4.835,-4.824,-4.825,-4.8234,-4.8229,-4.8237,-4.8372,-4.8375,-4.8378,-4.8381,0,-4.739,-4.7374,-4.7498,-4.7515,-4.7521,-4.7609,-4.7623,-4.7691,-4.7683,-4.7776,-4.7795,-4.7784,-4.7859,-4.7838,-4.7919,-4.7906,-4.8051,-4.8026,-4.8041,-4.8034,-4.8139,-4.813,-4.848,-4.8524,-4.8206,-4.8209,-4.8211,0,-4.715,-4.7258,-4.7228,-4.7301,-4.742,-4.7383,-4.7502,-4.7508,-4.7532,-4.7604,-4.7544,-4.7613,-4.7575,-4.7641,-4.7622,-4.7736,-4.775,-4.7747,-4.7741,-4.7753,-4.7753,-4.7775,-4.776,-4.7722,-4.772,-4.7718,-4.7717,0,-4.6912,-4.7021,-4.7139,-4.7161,-4.7188,-4.7245,-4.7258,-4.7284,-4.7324,-4.7372,-4.7397,-4.7456,-4.7488,-4.7535,-4.7509,-4.7435,-4.7647,-4.7541,-4.7644,-4.7645,-4.7691,-4.7689,-4.8005,-4.7715,-4.7714,-4.7714,-4.7713,0,-4.6714,-4.6764,-4.6936,-4.6957,-4.6987,-4.7064,-4.7119,-4.718,-4.7211,-4.7204,-4.7241,-4.7198,-4.7295,-4.7191,-4.7324,-4.7236,-4.7271,-4.7276,-4.7283,-4.729,-4.7174,-4.7355,-4.7659,-4.769,-4.7298,-4.7294,-4.7291,0,-4.6447,-4.6615,-4.6583,-4.6748,-4.6822,-4.675,-4.6835,-4.6863,-4.686,-4.6922,-4.6917,-4.6989,-4.6906,-4.6925,-4.6994,-4.6992,-4.7108,-4.6976,-4.7067,-4.7071,-4.7062,-4.7341,-4.7391,-4.7595,-4.7247,-4.7251,-4.7255,0,-4.6236,-4.6267,-4.6298,-4.6321,-4.6352,-4.6414,-4.6511,-4.6573,-4.6617,-4.6654,-4.6735,-4.6834,-4.6776,-4.6808,-4.6778,-4.6851,-4.7029,-4.6778,-4.6778,-4.6825,-4.7222,-4.7269,-4.7304,-4.6992,-4.6998,-4.7002,-4.7219,0,-4.5943,-4.6024,-4.6107,-4.6159,-4.6203,-4.6304,-4.6279,-4.6328,-4.6295,-4.6288,-4.6406,-4.6422,-4.6484,-4.6516,-4.6484,-4.6657,-4.6624,-4.6561,-4.6457,-4.664,-4.6711,-4.674,-4.6354,-4.6351,-4.6348,-4.6346,0,0,-4.5691,-4.5805,-4.5765,-4.5857,-4.5892,-4.5813,-4.5923,-4.5947,-4.5997,-4.6023,-4.5965,-4.6106,-4.6121,-4.6266,-4.6322,-4.6346,-4.6375,-4.6311,-4.6553,-4.6577,-4.6598,-4.6674,-4.6705,-4.6341,-4.634,-4.6339,-4.6338,0,-4.5578,-4.5595,-4.5704,-4.5727,-4.5759,-4.5746,-4.5772,-4.579,-4.579,-4.5904,-4.5836,-4.5903,-4.6016,-4.6042,-4.6069,-4.6294,-4.6239,-4.6314,-4.6444,-4.6527,-4.6554,-4.6577,-4.6658,-4.6688,-4.6331,-4.6332,-4.6332,0,-4.5366,-4.5379,-4.5428,-4.5501,-4.5521,-4.5599,-4.5484,-4.5571,-4.5628,-4.5535,-4.5649,-4.5654,-4.5685,-4.5825,-4.5886,-4.5835,-4.6116,-4.6022,-4.6038,-4.6044,-4.6123,-4.6156,-4.6185,-4.5805,-4.5804,-4.5802,0,0,-4.5272,-4.5346,-4.5347,-4.5475,-4.5492,-4.5473,-4.5511,-4.5481,-4.551,-4.5523,-4.5527,-4.5558,-4.5623,-4.5667,-4.5727,-4.5883,-4.5887,-4.5958,-4.5983,-4.6003,-4.6021,-4.6105,-4.6137,-4.5796,-4.5795,-4.5795,0,0,-4.5226,-4.5233,-4.5194,-4.5339,-4.5369,-4.5379,-4.5457,-4.5409,-4.546,-4.5445,-4.5398,-4.5404,-4.5534,-4.5541,-4.5457,-4.5689,-4.5587,-4.5606,-4.5679,-4.571,-4.5735,-4.573,-4.5341,0,0,0,0,0,-4.5097,-4.5232,-4.5197,-4.5217,-4.5308,-4.5399,-4.541,-4.5374,-4.5303,-4.5366,-4.5363,-4.5301,-4.5486,-4.5411,-4.5432,-4.5525,-4.5712,-4.5727,-4.5741,-4.5872,-4.5904,-4.5932,0,0,0,0,0,0,-4.5104,-4.513,-4.5193,-4.5209,-4.5229,-4.5393,-4.5265,-4.5259,-4.5295,-4.5282,-4.5303,-4.5301,-4.5272,-4.5398,-4.5417,-4.5507,-4.5334,-4.5717,-4.573,-4.5741,-4.5883,-4.5909,-4.5932,0,0,0,0,0,-4.511,-4.513,-4.5285,-4.5206,-4.5224,-4.5209,-4.5259,-4.5253,-4.5281,-4.5275,-4.527,-4.525,-4.5275,-4.5289,-4.5409,-4.5499,-4.532,-4.5328,-4.5726,-4.5736,-4.5745,-4.5896,0,0,0,0,0,0,-4.5115,-4.5125,-4.5288,-4.5292,-4.5152,-4.5199,-4.5205,-4.5249,-4.527,-4.5268,-4.5218,-4.5208,-4.528,-4.5289,-4.53,-4.5498,-4.5309,-4.5317,-4.5321,-4.5733,-4.5741,-4.5748,0,0,0,0,0,0,-4.5114,-4.5129,-4.529,-4.5223,-4.5219,-4.519,-4.5195,-4.5291,-4.5272,-4.5212,-4.5204,-4.5213,-4.5263,-4.5291,-4.5299,-4.545,-4.5301,-4.5308,-4.5313,-4.5316,-4.574,-4.5746,0,0,0,0,0,0,-4.512,-4.5133,-4.5222,-4.5219,-4.5215,-4.5256,-4.5273,-4.5368,-4.5215,-4.5213,-4.52,-4.5193,-4.5266,-4.5273,-4.5298,-4.5446,-4.5449,-4.5301,-4.5306,-4.5309,-4.5312,0,0,0,0,0,0,0,-4.5125,-4.5047,-4.5265,-4.5215,-4.5211,-4.5328,-4.5329,-4.533,-4.5214,-4.5208,-4.5202,-4.5196,-4.526,-4.5268,-4.5276,-4.5443,0,0,-4.53,-4.5304,0,0,0,0,0,0,0,0,-4.5041,-4.5045,-4.5265,-4.5266,-4.5266,-4.5328,-4.5329,-4.533,-4.5213,-4.5208,-4.5203,-4.5199,-4.5262,-4.5269,-4.5275,0,0,0,0,0,0,0,0,0,0,0,0,0,0,0,-4.5265,-4.5265,0,-4.5328,-4.5329,-4.533,-4.5212,-4.5208,-4.5204,-4.52,-4.5264,-4.5269,-4.5274,0,0,0,0,0,0,0,0,0,0,0,0,0,0,0,0,0,0,0,0,0,0,0,0,0,0,0,0,0,0,0,0,0,0,0,0,0,0,0,0,0,0,0,0,0,0,0,0,0,0,0,0,0,0,0,0,0,0,0,0,0,0,0,0,0,0,0,0,0]}],[{"header":{"parameterUnit":"kt","parameterCategory":2,"dx":1,"dy":1,"la1":30.253999710083008,"la2":30.299108505249023,"lo1":-89.0895004272461,"lo2":-89.04439544677734,"nx":28,"ny":28,"refTime":"2022-10-14T21:00:00:Z","depth":0,"parameterNumber":2,"parameterNumberName":"V-component_of_WINDS"},"data":[0.611,0.6099,0.6034,0.5991,0.5924,0.5883,0.5847,0.5793,0.5733,0.5675,0.563,0.556,0.5472,0.54,0.5346,0.5316,0.5298,0.5345,0.53,0.5153,0.5129,0.5105,0.5103,0.5342,0.5342,0.5462,0.5463,0.5464,0.6016,0.5951,0.5908,0.5822,0.5785,0.5702,0.5625,0.5599,0.5563,0.5488,0.5438,0.5381,0.5325,0.5217,0.5152,0.5144,0.5099,0.5132,0.513,0.5118,0.4959,0.4958,0.517,0.517,0.517,0.5169,0.5169,0.5169,0.5827,0.5823,0.5731,0.5683,0.562,0.5563,0.5546,0.546,0.5415,0.5339,0.5265,0.5222,0.5131,0.5016,0.496,0.4924,0.4874,0.4887,0.489,0.4895,0.4911,0.4752,0.4909,0.4908,0.4907,0.4906,0.4906,0,0.5667,0.5612,0.5564,0.5499,0.5459,0.54,0.5333,0.5321,0.5174,0.5144,0.5092,0.505,0.4968,0.491,0.4832,0.4768,0.4673,0.4655,0.4663,0.4699,0.4744,0.4721,0.4466,0.465,0.4647,0.4645,0.4644,0.4643,0.5472,0.5473,0.5342,0.5318,0.5264,0.5226,0.5189,0.5059,0.5025,0.4923,0.4924,0.4864,0.4809,0.4736,0.4629,0.4566,0.4519,0.4597,0.4508,0.4545,0.452,0.4521,0.4521,0.4617,0.462,0.4623,0.4625,0,0.5369,0.5255,0.5234,0.5101,0.5068,0.5075,0.496,0.4948,0.4863,0.4834,0.482,0.4684,0.4634,0.4513,0.443,0.4369,0.438,0.4335,0.4412,0.4397,0.4456,0.4452,0.4663,0.4685,0.4436,0.4438,0.444,0,0.5156,0.5162,0.4992,0.4985,0.4987,0.4854,0.486,0.4786,0.4702,0.4678,0.4551,0.4531,0.4378,0.4341,0.4249,0.4237,0.422,0.4172,0.4148,0.4183,0.419,0.4161,0.4149,0.4091,0.409,0.4089,0.4088,0,0.5006,0.4919,0.4907,0.4869,0.4724,0.4722,0.4661,0.4565,0.4528,0.4461,0.4436,0.4366,0.4328,0.4277,0.416,0.4104,0.4141,0.4039,0.4091,0.4095,0.4104,0.4105,0.4324,0.4087,0.4086,0.4086,0.4086,0,0.4815,0.475,0.475,0.4627,0.4609,0.46,0.4523,0.4487,0.4395,0.4336,0.4281,0.418,0.4157,0.4066,0.4033,0.3994,0.3964,0.3915,0.3916,0.3905,0.3806,0.3947,0.4168,0.4187,0.3899,0.3897,0.3896,0,0.4675,0.4642,0.4526,0.4528,0.4495,0.4353,0.4341,0.4262,0.4182,0.4142,0.4053,0.4007,0.3913,0.3881,0.3881,0.3786,0.3837,0.3776,0.3719,0.3719,0.375,0.3952,0.4015,0.4134,0.3874,0.3877,0.3878,0,0.455,0.4372,0.438,0.433,0.4202,0.4173,0.4159,0.4084,0.4064,0.3987,0.3971,0.3903,0.3829,0.3777,0.3685,0.3692,0.3799,0.361,0.3606,0.365,0.3852,0.3913,0.3933,0.3736,0.3738,0.374,0.3861,0,0.429,0.4256,0.4272,0.4163,0.4121,0.4113,0.3981,0.3954,0.3871,0.3785,0.3758,0.3656,0.3577,0.3566,0.3483,0.3536,0.3507,0.3428,0.3328,0.3462,0.3498,0.3513,0.3285,0.3281,0.3278,0.3276,0,0,0.4184,0.4131,0.4001,0.3981,0.3937,0.3786,0.379,0.3729,0.3609,0.3581,0.3525,0.3414,0.3333,0.3314,0.3345,0.3312,0.3309,0.3266,0.3399,0.3413,0.3426,0.3468,0.3485,0.327,0.3269,0.3268,0.3267,0,0.406,0.3983,0.3988,0.3919,0.3812,0.3719,0.3722,0.3587,0.3531,0.3503,0.3376,0.3343,0.3256,0.3187,0.3141,0.3266,0.3171,0.3252,0.3365,0.3372,0.3391,0.3406,0.3452,0.347,0.3259,0.326,0.326,0,0.3913,0.3816,0.3803,0.3694,0.3621,0.359,0.3454,0.3425,0.34,0.3231,0.3204,0.3129,0.3025,0.3023,0.3017,0.2964,0.3054,0.3,0.3016,0.3012,0.3012,0.3034,0.3055,0.2791,0.279,0.2789,0,0,0.3825,0.3791,0.3642,0.3657,0.3621,0.3482,0.345,0.3362,0.3272,0.3236,0.3137,0.3053,0.3,0.2968,0.2911,0.2928,0.2895,0.2948,0.297,0.2988,0.2995,0.3,0.3022,0.2785,0.2785,0.2784,0,0,0.378,0.3608,0.3539,0.354,0.3461,0.3312,0.3326,0.3237,0.3172,0.3158,0.3005,0.2975,0.297,0.29,0.2863,0.2873,0.2777,0.2783,0.2918,0.2944,0.2966,0.2982,0.2706,0,0,0,0,0,0.3584,0.363,0.3569,0.3549,0.3408,0.3347,0.3328,0.3203,0.3139,0.3154,0.3056,0.2955,0.2849,0.2812,0.2794,0.2836,0.2733,0.2742,0.2751,0.2928,0.2957,0.2981,0,0,0,0,0,0,0.3575,0.3551,0.3567,0.3424,0.3391,0.3344,0.3208,0.3175,0.3134,0.3116,0.2978,0.2951,0.2843,0.2813,0.2798,0.2841,0.271,0.2736,0.2744,0.2751,0.2938,0.2962,0.2982,0,0,0,0,0,0.3567,0.3548,0.3354,0.3422,0.3393,0.3239,0.3205,0.3176,0.3143,0.299,0.296,0.3052,0.2847,0.2826,0.2803,0.2851,0.272,0.2715,0.2741,0.2748,0.2753,0.295,0,0,0,0,0,0,0.3562,0.3521,0.3345,0.3332,0.3395,0.3239,0.3211,0.3179,0.3016,0.2988,0.3057,0.3045,0.2851,0.2834,0.2818,0.2862,0.2727,0.2722,0.2719,0.2746,0.2751,0.2755,0,0,0,0,0,0,0.353,0.3511,0.3338,0.3311,0.3293,0.324,0.3215,0.3176,0.3016,0.3092,0.3076,0.3054,0.2873,0.284,0.2827,0.2771,0.2733,0.2728,0.2725,0.2723,0.275,0.2754,0,0,0,0,0,0,0.352,0.3503,0.3313,0.33,0.3284,0.3123,0.3203,0.3064,0.2995,0.3101,0.2985,0.2981,0.2882,0.2867,0.2834,0.2785,0.2775,0.2733,0.2729,0.2727,0.2726,0,0,0,0,0,0,0,0.3511,0.3655,0.3425,0.3291,0.3276,0.3208,0.3204,0.32,0.2994,0.299,0.2987,0.2983,0.276,0.2755,0.275,0.2795,0,0,0.2733,0.2731,0,0,0,0,0,0,0,0,0.3659,0.3656,0.3425,0.3422,0.342,0.3207,0.3204,0.3201,0.2994,0.2991,0.2987,0.2984,0.2759,0.2755,0.275,0,0,0,0,0,0,0,0,0,0,0,0,0,0,0,0.3425,0.3423,0,0.3207,0.3204,0.3202,0.2993,0.2991,0.2988,0.2986,0.2758,0.2754,0.2751,0,0,0,0,0,0,0,0,0,0,0,0,0,0,0,0,0,0,0,0,0,0,0,0,0,0,0,0,0,0,0,0,0,0,0,0,0,0,0,0,0,0,0,0,0,0,0,0,0,0,0,0,0,0,0,0,0,0,0,0,0,0,0,0,0,0,0,0,0]}]]]